User: anonymous   Login
Location: Caltech
(34.1382°N, 118.1253°W)
Time: 09:30:56
(UTC-08:00)
Language:

Cosmos 1943 Rocket - Orbit

View from above orbital plane
View from above orbital plane
View from above satellite
View from above satellite

Ground track
Ground track

The orbit data is extracted from the following two-line orbital elements,

1 19120U 88039B   15065.16777562  .00000097  00000-0  69161-4 0  9992
2 19120 071.0143 287.0655 0020909 021.3461 338.8531 14.19087489388068
Epoch (UTC): 06 March 2015 04:01:35
Eccentricity: 0.0020909
inclination: 71.0143°
perigee height: 813 km
apogee height: 843 km
right ascension of ascending node: 287.0655°
argument of perigee: 21.3461°
revolutions per day: 14.19087489
mean anomaly at epoch: 338.8531°
orbit number at epoch: 38806

The dashed part of the orbit path shows where the satellite is in the earth's shadow,  

DLR